[[{"header":{"parameterUnit":"m.s-1","parameterCategory":1,"la1":30.2991,"la2":30.254,"lo1":-89.0895,"lo2":-89.0444,"dy":0.0017,"dx":0.0017,"nx":28,"ny":28,"refTime":"2023-10-25T21:00:00:Z","depth":0,"parameterNumber":2,"parameterNumberName":"U-component_of_WINDS"},"data":[0,0,0,0,0,0,0,0,0,0,0,0,0,0,0,0,0,0,0,0,0,0,0,0,0,0,0,0,0,0,0,0,0,0,0,0,0,0,0,0,0,0,0,0,0,0,0,0,0,0,0,0,0,0,0,0,0,0,-2.8889,-2.889,0,-2.896,-2.8961,-2.8962,-2.891,-2.8908,-2.8906,-2.8903,-2.8977,-2.8981,-2.8985,0,0,0,0,0,0,0,0,0,0,0,0,0,-2.8711,-2.8715,-2.8889,-2.889,-2.8891,-2.896,-2.8961,-2.8962,-2.8911,-2.8908,-2.8905,-2.8902,-2.8976,-2.898,-2.8985,0,0,0,0,0,0,0,0,0,0,0,0,0,-2.8786,-2.8716,-2.8889,-2.8873,-2.8873,-2.896,-2.8961,-2.8962,-2.8911,-2.8908,-2.8904,-2.8901,-2.8974,-2.898,-2.8986,-2.9092,0,0,-2.9005,-2.9007,0,0,0,0,0,0,0,0,-2.8782,-2.8793,-2.8875,-2.8875,-2.8874,-2.8923,-2.8925,-2.9006,-2.8912,-2.8897,-2.8903,-2.8899,-2.8962,-2.8969,-2.8989,-2.9096,-2.9099,-2.9005,-2.9009,-2.9012,-2.9013,0,0,0,0,0,0,0,-2.8777,-2.8789,-2.8917,-2.8876,-2.8876,-2.8864,-2.8871,-2.894,-2.8948,-2.8898,-2.8894,-2.8903,-2.8961,-2.8984,-2.8991,-2.91,-2.9005,-2.901,-2.9014,-2.9017,-2.9299,-2.9303,0,0,0,0,0,0,-2.8773,-2.8785,-2.8915,-2.8919,-2.8819,-2.887,-2.8877,-2.8911,-2.8947,-2.8949,-2.8906,-2.8901,-2.8975,-2.8984,-2.8993,-2.9121,-2.9012,-2.9017,-2.9021,-2.9296,-2.93,-2.9304,0,0,0,0,0,0,-2.8769,-2.8785,-2.8912,-2.8851,-2.8867,-2.8877,-2.8914,-2.8914,-2.8936,-2.8953,-2.8954,-2.8928,-2.8973,-2.8985,-2.9068,-2.9122,-2.902,-2.9026,-2.9291,-2.9297,-2.9302,-2.9376,0,0,0,0,0,0,-2.8764,-2.8784,-2.8823,-2.8853,-2.887,-2.8985,-2.8917,-2.8918,-2.8947,-2.8941,-2.8974,-2.8976,-2.8971,-2.906,-2.9075,-2.9129,-2.903,-2.9286,-2.9294,-2.9301,-2.9369,-2.9383,-2.9396,0,0,0,0,0,-2.8758,-2.8841,-2.8825,-2.8841,-2.892,-2.8988,-2.8998,-2.8991,-2.8952,-2.8992,-2.9003,-2.8975,-2.9115,-2.9069,-2.9085,-2.9142,-2.9283,-2.9292,-2.93,-2.9362,-2.9381,-2.9396,0,0,0,0,0,0,-2.8817,-2.8844,-2.8827,-2.8922,-2.8954,-2.8979,-2.903,-2.901,-2.9053,-2.9045,-2.9034,-2.9042,-2.913,-2.9145,-2.9093,-2.9248,-2.9193,-2.9205,-2.9235,-2.9252,-2.9265,-2.9259,-2.9035,0,0,0,0,0,-2.8841,-2.8894,-2.8915,-2.8997,-2.9014,-2.902,-2.9049,-2.9041,-2.9073,-2.9086,-2.9103,-2.9135,-2.9187,-2.922,-2.9269,-2.9372,-2.9379,-2.942,-2.9433,-2.9444,-2.9455,-2.9512,-2.953,-2.9333,-2.9333,-2.9333,0,0,-2.8891,-2.8912,-2.8946,-2.9009,-2.9032,-2.9088,-2.9031,-2.9092,-2.9133,-2.9095,-2.9175,-2.9189,-2.9225,-2.932,-2.9362,-2.9334,-2.9511,-2.9456,-2.9464,-2.9468,-2.9522,-2.9541,-2.9558,-2.9339,-2.9338,-2.9337,0,0,-2.901,-2.9032,-2.9102,-2.9127,-2.9164,-2.9168,-2.9185,-2.9215,-2.9223,-2.9304,-2.9277,-2.9327,-2.9416,-2.9443,-2.9468,-2.9602,-2.9578,-2.9619,-2.9689,-2.9745,-2.9761,-2.9774,-2.9822,-2.9839,-2.9629,-2.9629,-2.9629,0,-2.9067,-2.9149,-2.9141,-2.9205,-2.9234,-2.9204,-2.9276,-2.9301,-2.9351,-2.9372,-2.9342,-2.9454,-2.9476,-2.9576,-2.9609,-2.9631,-2.9651,-2.9613,-2.9759,-2.9773,-2.9785,-2.9831,-2.9849,-2.9634,-2.9633,-2.9633,-2.9632,0,-2.9218,-2.9276,-2.9329,-2.9379,-2.9415,-2.9482,-2.9486,-2.9523,-2.9513,-2.9521,-2.9605,-2.9631,-2.9684,-2.9708,-2.9699,-2.9809,-2.9791,-2.976,-2.9704,-2.9809,-2.9851,-2.9869,-2.964,-2.9639,-2.9637,-2.9636,0,0,-2.9372,-2.9419,-2.9439,-2.9462,-2.9502,-2.9547,-2.9615,-2.9668,-2.97,-2.9737,-2.9794,-2.9872,-2.9844,-2.9873,-2.9867,-2.9917,-3.0022,-2.988,-2.9881,-2.9905,-3.0146,-3.0167,-3.0187,-3.0008,-3.0011,-3.0013,-3.0142,0,-2.9492,-2.9609,-2.9606,-2.9715,-2.9769,-2.9743,-2.9803,-2.9834,-2.9845,-2.9893,-2.9905,-2.996,-2.992,-2.9937,-2.9985,-2.9999,-3.007,-2.999,-3.006,-3.0063,-3.005,-3.021,-3.0232,-3.0352,-3.0159,-3.0162,-3.0164,0,-2.9647,-2.969,-2.9805,-2.9839,-2.9862,-2.9915,-2.9964,-3.0011,-3.0048,-3.0052,-3.0087,-3.0074,-3.0144,-3.0088,-3.0186,-3.0131,-3.0161,-3.0173,-3.0177,-3.0182,-3.0118,-3.0217,-3.039,-3.0408,-3.019,-3.0188,-3.0186,0,-2.9747,-2.9834,-2.9914,-2.9935,-2.9977,-3.0015,-3.0035,-3.0068,-3.0101,-3.0145,-3.0167,-3.0219,-3.0247,-3.0288,-3.029,-3.0249,-3.0389,-3.0333,-3.0395,-3.0395,-3.0423,-3.0421,-3.0602,-3.0445,-3.0445,-3.0445,-3.0444,0,-2.988,-2.9952,-2.996,-3.0009,-3.0089,-3.0086,-3.0166,-3.0182,-3.0212,-3.0265,-3.0247,-3.0297,-3.0298,-3.035,-3.0353,-3.0433,-3.0446,-3.0452,-3.0452,-3.0453,-3.0452,-3.047,-3.0461,-3.0449,-3.0448,-3.0447,-3.0447,0,-3.0004,-3.0013,-3.0098,-3.0132,-3.0143,-3.02,-3.0229,-3.0277,-3.0287,-3.0355,-3.037,-3.0387,-3.0447,-3.0455,-3.0525,-3.0527,-3.0624,-3.0615,-3.0611,-3.0609,-3.067,-3.0664,-3.0868,-3.0894,-3.0722,-3.0724,-3.0725,0,-3.0087,-3.0142,-3.0182,-3.0216,-3.0238,-3.0293,-3.0327,-3.0328,-3.0365,-3.0412,-3.0455,-3.0514,-3.056,-3.0659,-3.0677,-3.0732,-3.0724,-3.0792,-3.0731,-3.0732,-3.0724,-3.072,-3.0725,-3.0802,-3.0804,-3.0806,-3.0807,0,-3.0235,-3.0237,-3.0286,-3.0339,-3.038,-3.0421,-3.046,-3.0489,-3.0495,-3.0537,-3.0599,-3.0636,-3.0709,-3.0768,-3.0822,-3.0844,-3.0827,-3.0826,-3.0843,-3.0844,-3.0839,-3.0842,-3.0641,-3.0821,-3.0819,-3.0818,-3.0818,-3.0817,-3.034,-3.0388,-3.0424,-3.0481,-3.051,-3.0548,-3.0595,-3.0612,-3.0663,-3.0722,-3.0721,-3.0789,-3.0828,-3.0899,-3.0925,-3.0979,-3.0957,-3.0981,-3.0987,-3.0993,-3.0999,-3.0832,-3.0989,-3.0989,-3.0988,-3.0988,-3.0988,0,-3.0486,-3.0509,-3.0561,-3.0616,-3.0661,-3.0643,-3.0686,-3.0725,-3.0785,-3.0822,-3.087,-3.0942,-3.1,-3.1025,-3.1082,-3.1121,-3.1115,-3.1136,-3.1132,-3.1138,-3.1016,-3.0995,-3.114,-3.114,-3.114,-3.114,-3.114,-3.114,-3.0566,-3.0646,-3.0654,-3.0749,-3.0772,-3.0839,-3.0865,-3.09,-3.093,-3.1011,-3.106,-3.1076,-3.1109,-3.1169,-3.1222,-3.1229,-3.125,-3.1274,-3.1277,-3.1162,-3.1146,-3.1131,-3.1112,-3.128,-3.128,-3.1394,-3.1396,-3.1396]},{"header":{"parameterUnit":"m.s-1","parameterCategory":1,"la1":30.2991,"la2":30.254,"lo1":-89.0895,"lo2":-89.0444,"dy":0.0017,"dx":0.0017,"nx":28,"ny":28,"refTime":"2023-10-25T21:00:00:Z","depth":0,"parameterNumber":3,"parameterNumberName":"V-component_of_WINDS"},"data":[0,0,0,0,0,0,0,0,0,0,0,0,0,0,0,0,0,0,0,0,0,0,0,0,0,0,0,0,0,0,0,0,0,0,0,0,0,0,0,0,0,0,0,0,0,0,0,0,0,0,0,0,0,0,0,0,0,0,1.8908,1.8908,0,1.8912,1.8913,1.8913,1.8827,1.8825,1.8823,1.8821,1.8823,1.8825,1.8828,0,0,0,0,0,0,0,0,0,0,0,0,0,1.8828,1.883,1.8908,1.8908,1.8908,1.8912,1.8913,1.8913,1.8828,1.8825,1.8822,1.882,1.8823,1.8825,1.8828,0,0,0,0,0,0,0,0,0,0,0,0,0,1.885,1.883,1.8908,1.8867,1.8863,1.8912,1.8913,1.8913,1.8828,1.8825,1.8821,1.8818,1.8822,1.8825,1.8828,1.8917,0,0,1.8838,1.884,0,0,0,0,0,0,0,0,1.8849,1.8853,1.8873,1.887,1.8866,1.8866,1.8885,1.8914,1.8829,1.8841,1.8821,1.8817,1.884,1.8842,1.885,1.8917,1.8917,1.8839,1.8841,1.8842,1.8843,0,0,0,0,0,0,0,1.8848,1.8853,1.891,1.8873,1.8869,1.8848,1.8847,1.889,1.886,1.884,1.8834,1.8836,1.8837,1.8847,1.8849,1.8917,1.8838,1.8841,1.8843,1.8845,1.9061,1.9064,0,0,0,0,0,0,1.8852,1.8852,1.891,1.891,1.8849,1.8852,1.8852,1.8869,1.8859,1.8854,1.8839,1.8832,1.8843,1.8846,1.8849,1.8954,1.8842,1.8845,1.8847,1.9057,1.9062,1.9066,0,0,0,0,0,0,1.885,1.8858,1.8909,1.8879,1.8884,1.8857,1.8878,1.8871,1.888,1.8858,1.8852,1.8854,1.884,1.8844,1.8902,1.8953,1.8846,1.8849,1.9053,1.9058,1.9064,1.9163,0,0,0,0,0,0,1.8848,1.8858,1.8891,1.8881,1.8886,1.8962,1.8881,1.8874,1.8887,1.8878,1.8871,1.8866,1.8838,1.8897,1.8905,1.8955,1.8852,1.9048,1.9055,1.9062,1.9155,1.9172,1.9186,0,0,0,0,0,1.8846,1.8918,1.8893,1.89,1.8927,1.8965,1.8968,1.8934,1.8891,1.8924,1.8911,1.8867,1.8946,1.8904,1.8912,1.8964,1.9044,1.9053,1.9061,1.9148,1.9168,1.9185,0,0,0,0,0,0,1.8933,1.8915,1.8888,1.8958,1.8964,1.895,1.8991,1.8956,1.8973,1.8964,1.8922,1.8921,1.8985,1.898,1.8933,1.9051,1.8988,1.8998,1.9051,1.907,1.9085,1.9084,1.8855,0,0,0,0,0,1.896,1.8993,1.8976,1.904,1.9044,1.9018,1.9033,1.9007,1.9011,1.9012,1.9002,1.9008,1.9034,1.9052,1.9075,1.9155,1.9153,1.9195,1.9211,1.9223,1.9232,1.9276,1.9295,1.9093,1.9093,1.9093,0,0,1.9017,1.9012,1.9034,1.9057,1.9058,1.9093,1.902,1.9059,1.9085,1.9018,1.9071,1.9065,1.9068,1.9138,1.9168,1.9136,1.9288,1.9234,1.9244,1.9246,1.9287,1.9306,1.9323,1.9099,1.9098,1.9097,0,0,1.9138,1.9137,1.9191,1.9195,1.9199,1.9181,1.9195,1.9188,1.9181,1.9235,1.9186,1.9217,1.9262,1.9267,1.9275,1.9404,1.9364,1.9413,1.9491,1.9534,1.955,1.9564,1.961,1.9627,1.9422,1.9422,1.9422,0,1.9207,1.9258,1.9223,1.9267,1.9279,1.9223,1.9278,1.9283,1.9294,1.9304,1.9268,1.9327,1.9325,1.9395,1.9427,1.9436,1.945,1.9412,1.9551,1.9564,1.9577,1.962,1.9638,1.9428,1.9427,1.9427,1.9426,0,1.9344,1.938,1.9424,1.9438,1.9455,1.9504,1.9477,1.9499,1.9474,1.946,1.9517,1.9514,1.9536,1.9551,1.9525,1.9619,1.9599,1.9558,1.9493,1.9602,1.9643,1.9659,1.9436,1.9434,1.9433,1.9431,0,0,1.9515,1.9513,1.9529,1.9536,1.9538,1.9566,1.9614,1.9637,1.9657,1.9668,1.9707,1.9749,1.9712,1.9722,1.9697,1.9735,1.9838,1.9689,1.9689,1.9717,1.9943,1.9973,1.9993,1.9813,1.9816,1.9819,1.9943,0,1.9633,1.9714,1.9687,1.977,1.9804,1.9753,1.9795,1.9801,1.9792,1.9819,1.9808,1.9839,1.9787,1.9793,1.9829,1.9818,1.9883,1.9809,1.9849,1.9851,1.9849,2.0014,2.0045,2.0162,1.9958,1.9961,1.9963,0,1.9779,1.9799,1.9886,1.9885,1.9898,1.9936,1.9957,1.9984,1.9991,1.9981,1.9995,1.9963,2.001,1.9948,2.0014,1.9964,1.998,1.9977,1.9981,1.9982,1.9912,2.0019,2.0198,2.0216,1.9987,1.9985,1.9983,0,1.9896,1.9944,2.0002,2.001,2.001,2.0039,2.004,2.0044,2.0061,2.0079,2.009,2.0114,2.0126,2.0146,2.0121,2.0078,2.0191,2.0126,2.0184,2.0185,2.0208,2.0207,2.0392,2.022,2.022,2.022,2.0219,0,2.0029,2.0084,2.0055,2.0091,2.0152,2.0121,2.0183,2.0178,2.0183,2.0218,2.0176,2.021,2.0176,2.0206,2.0188,2.0246,2.0252,2.0245,2.0239,2.0248,2.0249,2.0257,2.0248,2.0224,2.0223,2.0222,2.0221,0,2.0168,2.0151,2.0212,2.0209,2.021,2.0255,2.0253,2.0286,2.0275,2.032,2.0329,2.0311,2.0346,2.0324,2.0358,2.0346,2.0422,2.0405,2.0419,2.0415,2.0474,2.0469,2.067,2.0695,2.0508,2.0509,2.0511,0,2.0254,2.0295,2.0299,2.032,2.0325,2.0359,2.0377,2.0349,2.037,2.0384,2.0416,2.0447,2.047,2.0528,2.0518,2.0545,2.0528,2.0597,2.0531,2.054,2.0529,2.0526,2.0531,2.0609,2.0611,2.0613,2.0615,0,2.0407,2.0398,2.0425,2.0452,2.0475,2.0494,2.0509,2.0529,2.0502,2.0527,2.0563,2.0581,2.0618,2.065,2.0673,2.0675,2.0641,2.0636,2.0651,2.066,2.0667,2.0664,2.0455,2.0631,2.0629,2.0628,2.0627,2.0627,2.0521,2.0557,2.0566,2.06,2.0609,2.0626,2.0658,2.0653,2.0682,2.0711,2.0693,2.0736,2.0745,2.0773,2.0779,2.0813,2.0784,2.0806,2.0811,2.0817,2.0825,2.0663,2.0817,2.0816,2.0816,2.0815,2.0815,0,2.0673,2.0677,2.0709,2.0733,2.076,2.0728,2.0745,2.0769,2.0807,2.0819,2.0845,2.0887,2.0919,2.0914,2.0942,2.097,2.0956,2.0979,2.0976,2.0977,2.0848,2.0832,2.099,2.099,2.099,2.099,2.099,2.099,2.0754,2.0814,2.0806,2.0871,2.0875,2.0917,2.093,2.0945,2.0955,2.1005,2.1032,2.1029,2.1034,2.1064,2.1093,2.109,2.1103,2.1132,2.1124,2.1003,2.0986,2.0969,2.0954,2.1135,2.1135,2.1249,2.125,2.1251]}]]